Regional Weather Roundup
Issued by NWS

Home | Current Version | Previous Version | Text Only | Print | Product List | Glossary On
Versions: 1 2 3 4 5 6 7 8 9 10 11 12 13 14 15 16 17 18 19 20 21 22 23 24 25 26 27 28 29 30 31 32 33 34 35 36 37 38 39 40 41 42 43 44 45 46 47 48 49 50
000
ASUS43 KLMK 180010
RWRKY
KENTUCKY REGIONAL WEATHER ROUNDUP
NATIONAL WEATHER SERVICE LOUISVILLE KY
800 PM EDT THU APR 17 2014

NOTE "FAIR" INDICATES FEW OR NO CLOUDS BELOW 12,000 FEET
WITH NO SIGNIFICANT WEATHER AND/OR OBSTRUCTIONS TO VISIBILITY.

KYZ001>023-026-027-061>063-070>075-180100-
WESTERN AND SOUTH CENTRAL KENTUCKY

CITY           SKY/WX    TMP DP  RH WIND       PRES   REMARKS
PADUCAH        CLEAR     66  39  37 S5        30.22S
HENDERSON      CLEAR     64  37  36 SE5       30.23S
OWENSBORO      CLEAR     63  41  44 S7        30.25F
HOPKINSVILLE   CLEAR     64  34  32 E6        30.23S
BOWLING GREEN  PTCLDY    63  31  30 SW5       30.26S
GLASGOW        CLEAR     63  33  32 CALM      30.26S
$$

KYZ024-025-028>034-038-045-046-053-180100-
NORTH CENTRAL KENTUCKY

CITY           SKY/WX    TMP DP  RH WIND       PRES   REMARKS
LOUISVILLE/SDF PTCLDY    65  33  30 SE6       30.25S
LOUISVILLE/LOU CLEAR     68  34  28 SE7       30.26F
FORT KNOX      CLEAR     62  33  34 S6        30.25F
$$

KYZ035>037-039>044-047>052-055>060-089>105-180100-
NORTHEAST KENTUCKY

CITY           SKY/WX    TMP DP  RH WIND       PRES   REMARKS
LEXINGTON      PTCLDY    64  33  31 CALM      30.28S
COVINGTON      PTCLDY    59  36  42 S8        30.27R
FRANKFORT      PTCLDY    63  33  32 S5        30.26F
$$

KYZ054-064>069-076>088-106>120-180100-
SOUTHEAST KENTUCKY

CITY           SKY/WX    TMP DP  RH WIND       PRES   REMARKS
JACKSON        CLEAR     66  18  15 CALM      30.28R
LONDON         PTCLDY    68  20  16 SW5       30.27F
SOMERSET       PTCLDY    68  21  17 CALM      30.27F
MIDDLESBORO    CLEAR     64  28  25 CALM      30.29R
MONTICELLO     CLEAR    117  71  23 SW6       30.29R HX 128
$$




USA.gov is the U.S. government's official web portal to all federal, state and local government web resources and services.